�������l�o���
Date,Time,MP-1(��Sv/h),MP-2(��Sv/h),MP-3(��Sv/h),MP-4(��Sv/h),MP-5(��Sv/h),MP-6(��Sv/h),MP-7(��Sv/h),MP-8(��Sv/h),����,����(m/s),���J
2021/11/23,00:00,0.576,0.848,0.555,1.047,0.735,0.361,0.609,0.573,���k��,10.5,�L
2021/11/23,00:10,0.576,0.848,0.551,1.046,0.738,0.359,0.608,0.573,�k��,8.2,�L
2021/11/23,00:20,0.575,0.848,0.550,1.044,0.734,0.358,0.608,0.573,���k��,11.3,�L
2021/11/23,00:30,0.573,0.848,0.550,1.046,0.733,0.356,0.608,0.574,���k��,13.5,��
2021/11/23,00:40,0.572,0.847,0.550,1.044,0.732,0.358,0.608,0.574,���k��,13.2,��
2021/11/23,00:50,0.571,0.848,0.546,1.044,0.733,0.355,0.608,0.574,���k��,10.7,��
2021/11/23,01:00,0.571,0.847,0.546,1.043,0.731,0.355,0.607,0.572,���k��,6.8,��
2021/11/23,01:10,0.569,0.846,0.546,1.043,0.731,0.354,0.607,0.573,���k��,3.7,��
2021/11/23,01:20,0.569,0.846,0.547,1.041,0.730,0.354,0.606,0.573,���k��,4.3,��
2021/11/23,01:30,0.569,0.847,0.544,1.043,0.730,0.355,0.606,0.573,���k��,3.9,��
2021/11/23,01:40,0.569,0.847,0.545,1.041,0.730,0.353,0.609,0.573,�k��,3.8,��
2021/11/23,01:50,0.570,0.847,0.545,1.043,0.731,0.355,0.610,0.574,���k��,4.8,��
2021/11/23,02:00,0.570,0.846,0.544,1.043,0.732,0.354,0.608,0.572,���k��,5.1,��
2021/11/23,02:10,0.569,0.845,0.545,1.042,0.731,0.353,0.609,0.573,���k��,4.3,��
2021/11/23,02:20,0.568,0.845,0.546,1.041,0.734,0.355,0.610,0.574,�k��,6.1,��
2021/11/23,02:30,0.569,0.847,0.545,1.044,0.732,0.354,0.608,0.573,�k��,8.4,��
2021/11/23,02:40,0.569,0.845,0.545,1.042,0.731,0.352,0.610,0.573,�k��,7.3,��
2021/11/23,02:50,0.568,0.848,0.546,1.043,0.733,0.351,0.611,0.574,�k�k��,7.8,��
2021/11/23,03:00,0.570,0.848,0.546,1.043,0.733,0.352,0.608,0.575,�k��,7.0,��
2021/11/23,03:10,0.570,0.846,0.546,1.041,0.732,0.352,0.607,0.574,�k�k��,7.2,��
2021/11/23,03:20,0.570,0.847,0.546,1.043,0.733,0.353,0.609,0.573,�k��,4.8,��
2021/11/23,03:30,0.569,0.848,0.546,1.044,0.733,0.353,0.606,0.572,�k�k��,5.7,��
2021/11/23,03:40,0.571,0.848,0.545,1.045,0.733,0.354,0.608,0.573,�k�k��,6.0,��
2021/11/23,03:50,0.569,0.850,0.545,1.045,0.733,0.352,0.608,0.574,�k�k��,7.3,��
2021/11/23,04:00,0.571,0.849,0.546,1.044,0.732,0.353,0.607,0.573,�k��,6.1,��
2021/11/23,04:10,0.570,0.847,0.544,1.044,0.731,0.352,0.608,0.575,�k��,5.2,��
2021/11/23,04:20,0.569,0.850,0.546,1.045,0.731,0.352,0.609,0.574,�k��,7.3,��
2021/11/23,04:30,0.568,0.847,0.544,1.046,0.735,0.350,0.608,0.574,�k��,6.5,��
2021/11/23,04:40,0.571,0.849,0.547,1.046,0.734,0.351,0.609,0.573,�k��,8.4,��
2021/11/23,04:50,0.570,0.849,0.546,1.048,0.734,0.353,0.610,0.574,�k�k��,7.6,��
2021/11/23,05:00,0.571,0.849,0.545,1.047,0.735,0.352,0.609,0.574,�k�k��,8.5,��
2021/11/23,05:10,0.569,0.851,0.547,1.047,0.733,0.352,0.610,0.576,�k�k��,8.5,��
2021/11/23,05:20,0.569,0.848,0.546,1.047,0.735,0.352,0.610,0.575,�k��,8.2,��
2021/11/23,05:30,0.572,0.850,0.548,1.046,0.733,0.352,0.610,0.573,�k�k��,6.9,��
2021/11/23,05:40,0.570,0.850,0.546,1.045,0.734,0.352,0.609,0.577,�k�k��,5.6,��
2021/11/23,05:50,0.571,0.848,0.547,1.046,0.734,0.352,0.610,0.575,�k�k��,6.9,��
2021/11/23,06:00,0.571,0.850,0.545,1.049,0.734,0.350,0.609,0.574,�k��,8.5,��
2021/11/23,06:10,0.571,0.850,0.546,1.049,0.735,0.352,0.610,0.575,�k��,5.4,��
2021/11/23,06:20,0.570,0.850,0.547,1.049,0.734,0.352,0.609,0.573,�k��,3.6,��
2021/11/23,06:30,0.572,0.848,0.547,1.049,0.735,0.351,0.609,0.575,�k��,3.1,��
2021/11/23,06:40,0.570,0.851,0.547,1.048,0.735,0.351,0.610,0.573,�k��,5.3,��
2021/11/23,06:50,0.571,0.851,0.546,1.048,0.735,0.352,0.610,0.573,���k��,6.0,��
2021/11/23,07:00,0.571,0.851,0.545,1.049,0.736,0.351,0.610,0.574,���k��,3.4,��
2021/11/23,07:10,0.571,0.851,0.546,1.050,0.736,0.354,0.611,0.576,���k��,3.7,��
2021/11/23,07:20,0.573,0.852,0.546,1.048,0.734,0.352,0.611,0.576,�k��,5.2,��
2021/11/23,07:30,0.571,0.851,0.547,1.050,0.736,0.352,0.611,0.574,�k��,5.5,��
2021/11/23,07:40,0.572,0.855,0.547,1.049,0.735,0.353,0.609,0.574,�k��,6.8,��
2021/11/23,07:50,0.572,0.853,0.547,1.049,0.735,0.351,0.611,0.574,�k��,6.7,��
2021/11/23,08:00,0.572,0.853,0.546,1.047,0.735,0.351,0.612,0.574,�k��,7.0,��
2021/11/23,08:10,0.572,0.853,0.547,1.049,0.733,0.352,0.613,0.577,�k��,6.6,��
2021/11/23,08:20,0.574,0.852,0.548,1.051,0.735,0.352,0.611,0.574,�k��,9.0,��
2021/11/23,08:30,0.571,0.853,0.547,1.049,0.733,0.352,0.613,0.575,�k��,9.8,��
2021/11/23,08:40,0.573,0.851,0.549,1.050,0.735,0.351,0.611,0.575,�k��,9.0,��
2021/11/23,08:50,0.572,0.851,0.548,1.049,0.735,0.353,0.612,0.576,���k��,8.6,��
2021/11/23,09:00,0.573,0.853,0.547,1.048,0.736,0.353,0.611,0.576,���k��,8.1,��
2021/11/23,09:10,0.571,0.851,0.547,1.051,0.738,0.351,0.610,0.577,���k��,9.8,��
2021/11/23,09:20,0.571,0.851,0.548,1.051,0.737,0.352,0.610,0.577,�k��,10.6,��
2021/11/23,09:30,0.572,0.851,0.547,1.051,0.740,0.353,0.611,0.575,�k��,11.6,��
2021/11/23,09:40,0.575,0.852,0.549,1.051,0.736,0.354,0.611,0.576,���k��,8.6,��
2021/11/23,09:50,0.574,0.851,0.548,1.052,0.736,0.352,0.612,0.577,���k��,7.3,��
2021/11/23,10:00,0.573,0.851,0.548,1.052,0.738,0.353,0.611,0.576,���k��,11.3,��
2021/11/23,10:10,0.575,0.853,0.548,1.053,0.737,0.355,0.611,0.577,���k��,9.3,��
2021/11/23,10:20,0.574,0.854,0.549,1.052,0.739,0.354,0.611,0.576,���k��,8.9,��
2021/11/23,10:30,0.574,0.852,0.550,1.054,0.739,0.353,0.611,0.576,���k��,8.8,��
2021/11/23,10:40,0.574,0.853,0.549,1.053,0.738,0.353,0.610,0.576,��,7.7,��
2021/11/23,10:50,0.575,0.855,0.549,1.053,0.738,0.353,0.611,0.577,��,10.8,��
2021/11/23,11:00,0.574,0.852,0.550,1.053,0.739,0.354,0.612,0.579,��,11.7,��
2021/11/23,11:10,0.574,0.851,0.549,1.053,0.739,0.354,0.612,0.577,��,9.7,��
2021/11/23,11:20,0.576,0.854,0.551,1.051,0.741,0.352,0.610,0.578,��,11.9,��
2021/11/23,11:30,0.577,0.857,0.550,1.054,0.739,0.354,0.611,0.578,��,11.4,��
2021/11/23,11:40,0.575,0.857,0.550,1.057,0.740,0.354,0.610,0.577,��,14.2,��
2021/11/23,11:50,0.575,0.856,0.550,1.055,0.740,0.353,0.611,0.577,��,14.1,��
2021/11/23,12:00,0.576,0.858,0.551,1.057,0.741,0.354,0.611,0.578,��,13.0,��
2021/11/23,12:10,0.575,0.858,0.551,1.056,0.740,0.356,0.612,0.576,��,12.4,��
2021/11/23,12:20,0.577,0.857,0.553,1.056,0.740,0.355,0.610,0.576,��,11.0,��
2021/11/23,12:30,0.575,0.859,0.551,1.056,0.741,0.356,0.612,0.575,��,10.4,��
2021/11/23,12:40,0.576,0.860,0.552,1.055,0.741,0.358,0.611,0.575,��,9.9,��
2021/11/23,12:50,0.576,0.858,0.554,1.057,0.741,0.357,0.617,0.576,��,9.7,��
2021/11/23,13:00,0.576,0.861,0.553,1.058,0.741,0.357,0.612,0.575,���쐼,8.3,��
2021/11/23,13:10,0.577,0.857,0.553,1.056,0.739,0.356,0.611,0.576,��,10.2,��
2021/11/23,13:20,0.576,0.858,0.552,1.057,0.741,0.356,0.613,0.575,��,7.9,��
2021/11/23,13:30,0.575,0.858,0.550,1.060,0.741,0.357,0.614,0.575,��,8.7,��
2021/11/23,13:40,0.576,0.859,0.552,1.058,0.740,0.356,0.613,0.574,��,7.2,��
2021/11/23,13:50,0.576,0.860,0.552,1.058,0.741,0.357,0.613,0.575,��,8.2,��
2021/11/23,14:00,0.578,0.858,0.552,1.058,0.740,0.355,0.613,0.575,��,6.6,��
2021/11/23,14:10,0.576,0.859,0.552,1.056,0.742,0.356,0.613,0.575,���쐼,8.1,��
2021/11/23,14:20,0.577,0.860,0.554,1.058,0.745,0.356,0.614,0.575,���쐼,7.0,��
2021/11/23,14:30,0.578,0.861,0.553,1.057,0.744,0.356,0.612,0.576,���쐼,8.0,��
2021/11/23,14:40,0.577,0.861,0.554,1.060,0.744,0.356,0.614,0.576,���쐼,7.3,��
2021/11/23,14:50,0.577,0.859,0.554,1.062,0.744,0.356,0.615,0.576,���쐼,5.5,��
2021/11/23,15:00,0.578,0.863,0.553,1.057,0.744,0.356,0.614,0.577,���쐼,5.9,��
2021/11/23,15:10,0.578,0.863,0.553,1.059,0.744,0.357,0.614,0.577,�쐼,3.8,��
2021/11/23,15:20,0.576,0.862,0.554,1.057,0.743,0.356,0.614,0.578,�쐼,5.3,��
2021/11/23,15:30,0.576,0.864,0.553,1.060,0.744,0.356,0.614,0.577,�쐼,4.8,��
2021/11/23,15:40,0.577,0.861,0.554,1.060,0.742,0.357,0.614,0.579,�쐼,4.9,��
2021/11/23,15:50,0.575,0.861,0.552,1.060,0.743,0.356,0.616,0.577,�쐼,2.9,��
2021/11/23,16:00,0.577,0.863,0.553,1.058,0.742,0.358,0.615,0.578,�쐼,4.2,��
2021/11/23,16:10,0.576,0.864,0.553,1.059,0.742,0.357,0.615,0.579,���쐼,4.6,��
2021/11/23,16:20,0.578,0.865,0.552,1.058,0.740,0.356,0.615,0.578,�쐼,3.8,��
2021/11/23,16:30,0.577,0.862,0.552,1.058,0.744,0.356,0.614,0.577,�쐼,2.9,��
2021/11/23,16:40,0.578,0.862,0.552,1.058,0.746,0.356,0.615,0.577,���쐼,2.5,��
2021/11/23,16:50,0.578,0.862,0.553,1.059,0.745,0.356,0.613,0.578,���쐼,3.5,��
2021/11/23,17:00,0.578,0.864,0.553,1.058,0.745,0.356,0.613,0.577,��,4.2,��
2021/11/23,17:10,0.579,0.864,0.553,1.056,0.745,0.356,0.615,0.576,��,4.2,��
2021/11/23,17:20,0.579,0.864,0.551,1.058,0.747,0.357,0.613,0.577,��,5.5,��
2021/11/23,17:30,0.579,0.864,0.554,1.058,0.746,0.357,0.614,0.578,��,6.0,��
2021/11/23,17:40,0.578,0.863,0.553,1.059,0.746,0.356,0.616,0.579,��,6.7,��
2021/11/23,17:50,0.579,0.863,0.554,1.059,0.746,0.355,0.615,0.577,��,10.0,��
2021/11/23,18:00,0.580,0.863,0.554,1.058,0.745,0.356,0.614,0.579,��,9.2,��
2021/11/23,18:10,0.578,0.864,0.553,1.061,0.744,0.356,0.613,0.578,��,9.3,��
2021/11/23,18:20,0.577,0.863,0.555,1.059,0.746,0.356,0.615,0.577,��,10.4,��
2021/11/23,18:30,0.581,0.864,0.554,1.060,0.745,0.355,0.613,0.578,��,8.9,��
2021/11/23,18:40,0.577,0.864,0.553,1.060,0.745,0.356,0.614,0.575,��,8.1,��
2021/11/23,18:50,0.578,0.865,0.554,1.059,0.746,0.355,0.615,0.578,��,9.8,��
2021/11/23,19:00,0.579,0.866,0.553,1.060,0.746,0.355,0.614,0.578,��,8.5,��
2021/11/23,19:10,0.579,0.862,0.553,1.063,0.746,0.354,0.613,0.578,��,9.4,��
2021/11/23,19:20,0.579,0.863,0.553,1.062,0.746,0.356,0.614,0.578,��,9.1,��
2021/11/23,19:30,0.580,0.863,0.554,1.059,0.745,0.356,0.614,0.578,��,8.7,��
2021/11/23,19:40,0.580,0.865,0.554,1.060,0.745,0.354,0.613,0.577,��,10.0,��
2021/11/23,19:50,0.577,0.865,0.551,1.060,0.744,0.356,0.615,0.576,��,11.3,��
2021/11/23,20:00,0.580,0.865,0.555,1.061,0.746,0.355,0.616,0.578,��,9.7,��
2021/11/23,20:10,0.578,0.864,0.553,1.062,0.746,0.355,0.613,0.578,��,9.7,��
2021/11/23,20:20,0.579,0.864,0.553,1.061,0.747,0.355,0.615,0.578,��,8.7,��
2021/11/23,20:30,0.579,0.864,0.553,1.062,0.745,0.355,0.614,0.578,���k��,8.1,��
2021/11/23,20:40,0.580,0.865,0.554,1.061,0.746,0.357,0.614,0.577,��,8.1,��
2021/11/23,20:50,0.580,0.863,0.553,1.062,0.748,0.355,0.614,0.578,��,6.8,��
2021/11/23,21:00,0.577,0.863,0.555,1.062,0.744,0.355,0.615,0.579,���k��,7.0,��
2021/11/23,21:10,0.578,0.864,0.553,1.064,0.745,0.356,0.615,0.577,���k��,8.9,��
2021/11/23,21:20,0.578,0.864,0.554,1.061,0.745,0.355,0.615,0.579,��,9.1,��
2021/11/23,21:30,0.579,0.865,0.555,1.063,0.746,0.355,0.614,0.578,��,9.1,��
2021/11/23,21:40,0.577,0.864,0.554,1.064,0.747,0.355,0.614,0.579,��,8.0,��
2021/11/23,21:50,0.578,0.863,0.552,1.061,0.747,0.354,0.615,0.578,��,7.1,��
2021/11/23,22:00,0.578,0.864,0.554,1.062,0.746,0.356,0.615,0.578,���k��,7.4,��
2021/11/23,22:10,0.579,0.865,0.554,1.061,0.746,0.355,0.614,0.577,���k��,7.8,��
2021/11/23,22:20,0.579,0.864,0.554,1.064,0.746,0.354,0.614,0.576,���k��,8.0,��
2021/11/23,22:30,0.577,0.865,0.554,1.064,0.746,0.354,0.615,0.578,��,7.8,��
2021/11/23,22:40,0.578,0.866,0.555,1.064,0.746,0.355,0.614,0.578,��,6.9,��
2021/11/23,22:50,0.579,0.865,0.555,1.061,0.746,0.355,0.614,0.577,���k��,9.6,��
2021/11/23,23:00,0.578,0.862,0.555,1.063,0.746,0.355,0.615,0.579,��,9.5,��
2021/11/23,23:10,0.579,0.864,0.555,1.064,0.746,0.355,0.615,0.578,��,7.9,��
2021/11/23,23:20,0.578,0.865,0.555,1.063,0.745,0.354,0.614,0.578,��,6.8,��
2021/11/23,23:30,0.577,0.866,0.552,1.062,0.745,0.358,0.615,0.578,��,7.5,��
2021/11/23,23:40,0.578,0.864,0.553,1.063,0.745,0.355,0.616,0.578,���k��,6.2,��
2021/11/23,23:50,0.579,0.864,0.554,1.062,0.745,0.354,0.615,0.578,���k��,7.0,��
